Regional Weather Roundup
Issued by NWS

Home | Current Version | Previous Version | Text Only | Print | Product List | Glossary Off
Versions: 1 2 3 4 5 6 7 8 9 10 11 12 13 14 15 16 17 18 19 20 21 22 23 24 25 26 27 28 29 30 31 32 33 34 35 36 37 38 39 40 41 42 43 44 45 46 47 48 49 50

000
ASUS45 KSLC 302110
RWRUT

UTAH REGIONAL WEATHER ROUNDUP
NATIONAL WEATHER SERVICE SALT LAKE CITY UT
300 PM MDT TUE SEP 30 2014

UTZ001>011-023>025-302200-

NORTHERN UTAH

CITY           SKY/WX    TMP DP  RH WIND       PRES   REMARKS
HILL AFB       PTSUNNY   58  45  60 SW12      29.95F
LOGAN          NOT AVBL
OGDEN          CLOUDY    60  44  55 VRB7      29.94F
PROVO AIRPORT  PTSUNNY   63  41  45 VRB5      29.94F
SALT LAKE CITY LGT RAIN  59  46  62 NW14      29.94F
VERNAL         CLOUDY    59  44  57 E5        29.92F
WENDOVER       PTSUNNY   64  43  45 E9        29.93F
HEBER CITY     CLOUDY    59  37  44 SW13      29.95F
WEST JORDAN    CLOUDY    54  46  76 NW5       29.98R

$$

UTZ012>022-026-027-302200-

SOUTHERN UTAH

CITY           SKY/WX    TMP DP  RH WIND       PRES   REMARKS
BRYCE CANYON   SUNNY     60  32  34 N10G17    30.07F
CEDAR CITY     SUNNY     67  32  27 VRB3      29.98F
MILFORD        SUNNY     67  40  37 CALM      29.95F
MOAB/CYNLANDS  SUNNY     67  41  38 NW9       29.92F
PRICE          MOSUNNY   60  41  49 S3        29.97F
ST GEORGE      MOCLDY    79  39  24 W6        29.88F
KANAB            N/A     72  36  26 SW9       29.98F

$$

REGIONAL REPORTS     COLORADO/ARIZONA

CITY           SKY/WX    TMP DP  RH WIND       PRES   REMARKS
CRAIG, CO      LGT RAIN  51  41  68 W17G23    29.96S
GRAND JUNCTION CLOUDY    63  44  50 VRB3      29.94F
RIFLE          CLOUDY    57  43  59 VRB3      29.95F
MONTROSE       CLOUDY    60  41  49 NE3       29.98F
CORTEZ         SUNNY     63  37  38 W14       30.00F
PAGE, AZ       NOT AVBL
GRAND CANYON   SUNNY     65  36  34 VRB7      30.06F
KINGMAN        SUNNY     79  36  21 SE3       29.92F
FLAGSTAFF      SUNNY     64  37  36 S13       30.08F

$$

REGIONAL REPORTS    NEVADA/IDAHO/WYOMING

CITY           SKY/WX    TMP DP  RH WIND       PRES   REMARKS
LAS VEGAS, NV  MOSUNNY   83  36  18 SE3       29.80F
ELY            CLOUDY    64  35  34 W10       30.00F
ELKO           CLOUDY    61  36  39 NW12      29.96F
POCATELLO, ID  PTSUNNY   56  47  71 SW22G30   29.91F
BURLEY         MOSUNNY   58  42  55 W22G30    29.93F
EVANSTON, WY   PTSUNNY   51  40  65 SW16      29.99F
ROCK SPRINGS   PTSUNNY   49  42  77 W20       29.93F THUNDER

$$



USA.gov is the U.S. government's official web portal to all federal, state and local government web resources and services.